Location: Forli
(44.2227°N, 12.0407°E)
Time: 15:37:38
(UTC+01:00)

ACS3 Solar Sail - Pass Details

Date: 27 February 2026
Orbit: 882 x 976 km, 97.2° (Epoch: 14 March)

Event Time Altitude Azimuth Distance (km) Brightness Sun altitude
Rises 02:49:59 0° 5° (N) 3,495 5.2 -42.3°
Reaches altitude 10° 02:52:29 10° 360° (N) 2,552 4.3 -41.9°
Enters shadow 02:52:30 10° 360° (N) 2,543 4.3 -41.9°
